sat.trackr.live / text

‹ back to catalog

CALSPHERE 1

NORAD 900 · 1964-063C

PAYLOAD ACTIVE UNKNOWN

§ Identity

Operator
Country
US
Launch date
1964-10-06
Launch site
AFWTR
Launch vehicle
Mass (kg)
RCS (m²)
0.05

Purposes: military

External: N2YO · Heavens-Above · Gunter

§ Orbital elements

Epoch: 2026-05-25T03:12:31.311072Z

Period
104.61 min
Inclination
90.2237°
Eccentricity
0.0027040
Mean motion
13.76594580 rev/d
Perigee alt
956.1 km
Apogee alt
995.9 km
Semi-major
7,354.1 km
B*
5.8285e-4
RAAN
71.2271°
Arg perigee
7.8403°
Mean anomaly
98.2715°
Rev number
6,825

§ Raw data

CALSPHERE 11 00900U 64063C   26145.13369573  .00000582  00000+0  58285-3 0  99982 00900  90.2237  71.2271 0027040   7.8403  98.2715 13.76594580 68250

JSON: /api/v1/satellites/900 · /tle

For live sub-satellite position, see the globe view (requires WebGL).

§ Visibility from observer

Set your observer location to see the next 7 days of passes ≥ 10°. The values pass through the URL so the page stays shareable.

No JS? Fill the form by hand. The geolocation button needs JavaScript.